FLOCK 3P-71

Last updated on Wed Feb 14 2018 16:20:32 GMT+0000 (Coordinated Universal Time)

1 42024U 17008CE 18044.73459495 .00002706 00000-0 11483-3 0 9996 2 42024 97.4685 110.3510 0009944 75.5436 284.6903 15.23927087 54173
UTC large
Height (km)
Speed (km/s)
/
Latitude / Longitude
Inclination (degrees)
Orbital Period (minutes)
Azimuth
Elevation
Range (km)
Doppler Factor

Next 0 passes for location: London (51.5072 / 0.1276)

Sorry there are no passes over London.